Voltar ao catálogo

BREEZE-KM R/B

AtivoPO
NORAD 41336·ROCKET BODY·🇷🇺 Russia

Lançado Feb 16, 2016 de Plesetsk Cosmodrome

Loading…

Próximas Passagens (próximas 24 horas)

TLE

AtualizadoSource: Space-Track

Época: Sep 14, 2026, 14:53 UTC

1 41336U 16011B   26257.62023352  .00006142  00000-0  15716-3 0  9997
2 41336  98.6415 144.7415 0135764 133.4213 227.8420 15.30932724581141

Acompanhe BREEZE-KM R/B em tempo real com AllMySat

Download on the App Store